Theta_e
290 286 283 282 285 286 286 285 287 285 285 284 283 282 283 282 285 288 288 289 287 286 287 286 288 289 291 292 294 295 296 295 295 295 295 295 295 294 295 295 295 294 295 296 294 295 295 294 294 293 291 291 294 298 300 303 306 309 311 313 315 320 322 322 320 320 319 317 317 318 317 316 317 317 317 317 318 318 318 317 317 315 314 313 312 311
286 284 284 285 286 287 287 285 283 284 284 284 283 282 283 282 283 288 288 290 288 286 287 287 287 289 291 292 293 294 294 293 294 294 295 295 295 294 293 292 293 293 295 295 295 295 294 294 293 292 291 292 294 295 298 302 304 307 310 312 315 319 321 321 321 320 319 320 319 318 317 317 317 316 315 316 317 318 317 316 316 315 314 313 312 310
284 284 286 287 286 284 284 284 284 285 285 283 283 283 281 284 283 288 287 287 286 284 287 287 286 288 290 292 293 293 293 294 295 294 294 293 292 292 292 291 292 292 293 293 294 294 294 294 293 292 291 292 293 295 297 300 302 305 308 311 314 318 318 321 321 321 319 320 320 319 319 318 317 318 318 318 317 318 317 316 316 315 314 313 312 310
282 281 285 286 285 286 284 283 283 283 282 282 282 281 283 285 282 282 289 289 289 285 284 285 285 288 290 292 292 293 293 293 294 294 293 292 291 291 291 291 291 291 292 291 292 291 292 292 293 294 293 292 293 294 296 298 300 303 306 310 314 316 318 320 321 317 321 321 321 320 320 320 319 317 317 317 317 317 317 315 316 315 314 313 312 310
285 289 287 285 283 286 285 283 283 283 283 281 283 283 282 283 285 283 286 286 287 289 288 284 282 282 287 287 288 291 293 292 292 293 293 291 290 290 291 292 291 291 291 291 290 290 290 290 292 292 293 292 292 293 294 296 298 301 304 307 311 315 317 318 318 319 320 320 319 319 319 319 318 316 316 315 314 315 314 315 315 314 314 313 312 310
284 285 285 285 284 284 285 285 285 285 283 281 280 285 286 286 284 285 285 283 283 283 286 281 277 278 285 286 287 289 290 290 292 291 291 290 290 290 290 290 290 291 290 290 289 289 289 290 290 292 293 293 293 293 294 295 296 299 301 304 307 311 316 318 320 320 319 319 318 317 315 313 313 311 312 310 311 313 313 313 315 315 314 312 312 310
284 285 286 287 285 284 284 283 283 286 282 281 285 282 283 283 283 282 282 282 278 277 284 286 278 275 284 284 286 288 288 289 291 290 290 290 290 290 289 289 289 288 289 289 288 289 289 290 290 291 292 293 293 294 294 294 295 295 299 301 304 308 312 316 317 320 317 319 318 317 316 315 314 313 313 315 315 315 315 316 315 315 314 313 312 310
285 286 284 283 285 284 282 282 283 285 284 281 282 284 284 282 282 283 282 281 281 284 286 285 283 277 277 283 287 286 287 287 288 288 289 290 290 289 288 288 286 286 286 287 288 289 290 291 291 291 292 293 293 293 293 294 294 295 296 298 301 304 308 313 316 318 319 317 318 317 317 316 316 315 314 315 315 316 315 315 314 314 314 313 312 310
284 285 285 284 284 283 282 283 285 284 283 283 284 284 284 284 283 283 281 280 281 280 278 280 280 276 277 283 287 284 284 285 286 286 288 289 290 290 288 286 285 286 287 288 289 289 290 290 291 292 293 294 295 294 294 294 294 295 296 297 299 302 305 310 313 314 319 316 318 318 317 316 316 317 316 315 315 314 314 314 314 313 314 313 312 311
285 285 285 285 284 281 283 283 281 284 284 283 285 285 284 282 281 282 280 280 280 277 275 279 281 276 277 284 283 285 283 282 283 285 286 288 288 288 286 285 286 288 289 289 289 289 290 290 292 294 295 295 295 295 295 294 295 296 296 297 298 300 303 307 311 314 316 318 316 317 317 316 316 316 316 315 314 314 313 313 313 313 313 313 312 311
284 286 289 286 283 282 282 285 282 284 286 284 282 284 285 284 283 280 280 277 272 271 276 280 280 279 274 281 281 280 282 282 283 283 285 285 286 286 284 285 287 288 288 288 289 289 289 290 292 295 294 294 295 295 295 296 297 297 297 297 297 299 302 305 309 312 315 317 318 317 316 316 315 315 315 314 313 313 312 312 312 312 312 312 312 312
284 285 285 285 286 286 285 284 283 283 285 284 281 280 280 280 280 279 272 273 270 270 278 279 278 278 271 274 281 283 286 285 282 280 281 282 283 283 284 286 288 288 288 288 288 288 288 289 292 293 292 292 293 294 294 295 297 297 297 297 297 299 301 304 307 310 313 316 318 317 317 316 316 316 315 314 313 313 311 311 311 312 312 311 311 311
279 281 282 287 289 288 284 283 284 283 283 283 280 279 276 272 275 266 269 266 268 271 275 279 279 274 274 278 282 284 282 283 282 281 281 281 282 283 285 287 288 288 288 288 288 287 287 287 290 292 292 292 292 292 293 294 295 297 297 297 297 298 301 302 305 308 311 314 316 316 316 317 316 316 316 315 314 313 312 312 311 311 310 310 310 310
277 280 282 285 286 286 285 281 280 279 280 279 278 277 274 269 265 267 270 271 272 274 279 277 279 274 279 282 282 282 282 280 281 281 282 283 283 284 285 287 287 287 287 287 287 287 287 287 289 292 292 291 291 292 292 293 294 296 297 298 297 298 300 302 304 307 309 312 314 317 316 317 316 315 315 316 315 314 313 313 312 311 311 310 310 310
273 271 281 283 280 284 283 283 282 280 278 278 282 278 274 268 269 265 269 266 267 270 275 279 274 268 273 275 279 279 279 280 282 282 283 284 284 284 285 286 286 286 286 286 286 286 286 286 289 291 292 291 291 291 292 292 293 295 296 297 297 298 299 301 303 306 308 310 313 315 316 316 316 317 315 315 315 315 314 313 313 312 312 311 311 311
276 276 278 283 284 282 281 283 283 280 278 278 278 279 272 269 277 269 271 269 268 269 270 271 274 277 277 283 282 281 281 281 282 282 283 283 284 284 284 285 285 285 286 286 285 285 285 286 289 291 291 291 291 291 291 292 293 294 296 297 297 298 299 300 300 304 307 309 311 313 316 315 315 314 316 315 313 315 315 314 313 312 312 312 311 311
277 276 282 283 282 281 280 281 280 283 269 275 279 272 275 279 276 271 271 275 274 271 269 276 273 276 280 281 280 279 279 280 281 281 282 281 282 283 283 284 284 285 285 285 285 284 285 285 287 290 291 291 291 291 291 291 292 294 295 296 297 297 298 299 300 303 306 308 310 311 314 316 314 313 314 315 314 314 314 314 314 313 312 312 311 311
271 276 283 281 280 281 281 280 279 280 282 277 270 275 279 281 276 269 263 266 267 263 266 271 268 270 271 266 277 277 277 278 279 280 280 281 282 282 283 283 284 284 284 284 284 285 285 285 286 289 290 290 290 290 290 291 292 294 296 296 296 296 296 298 300 301 303 306 308 309 311 313 314 312 312 314 314 315 313 313 313 313 312 311 311 310
280 273 278 281 282 281 281 279 278 282 281 277 276 280 274 263 265 270 267 261 261 259 263 267 270 269 272 270 274 274 275 276 278 279 279 280 281 282 282 283 284 285 284 284 284 284 284 285 285 287 289 290 290 290 290 291 292 293 295 296 296 296 296 297 299 301 302 305 307 309 309 311 312 313 312 312 312 312 312 312 312 312 312 311 310 309
280 273 276 278 278 278 278 276 269 273 279 279 275 273 276 272 268 263 266 267 266 263 263 261 266 265 272 272 274 274 276 277 277 277 278 280 281 281 281 282 283 284 284 284 284 284 284 284 284 286 287 288 289 289 290 290 291 292 294 296 296 296 295 296 297 299 301 303 306 307 309 310 311 312 312 312 311 310 310 311 311 311 311 311 310 309
274 281 270 278 280 278 272 276 272 275 272 272 272 271 272 271 274 273 270 266 261 262 260 262 260 266 271 277 276 276 277 277 277 277 279 280 280 280 281 282 283 284 284 284 284 284 283 283 284 285 287 288 288 288 289 290 290 292 293 295 296 295 294 294 295 297 299 302 304 305 306 307 309 310 311 310 310 310 311 310 309 310 310 310 309 309
266 273 270 275 274 273 274 277 276 276 275 274 273 270 272 269 266 264 262 272 265 261 259 261 260 268 275 277 278 277 278 278 279 279 279 279 279 280 281 282 283 284 284 284 284 283 282 282 284 285 286 287 287 288 288 289 290 291 292 294 295 295 294 294 295 296 297 300 302 303 304 305 306 309 310 309 310 308 308 309 309 309 308 308 309 308
275 272 271 270 273 274 276 279 278 278 276 274 273 271 274 272 272 262 261 263 266 269 270 268 264 265 276 277 278 278 279 279 279 279 278 278 279 279 280 282 283 284 284 284 283 283 282 282 283 284 285 286 287 287 287 289 290 290 291 293 294 294 294 294 294 296 297 298 300 302 303 304 304 305 306 307 309 309 308 308 307 307 307 307 307 307
283 265 261 272 275 275 274 275 277 277 277 274 274 276 273 271 272 270 268 270 266 267 263 263 262 268 276 277 278 279 279 279 280 278 277 278 279 279 280 282 283 283 284 284 283 282 282 282 283 284 284 285 286 287 287 288 289 290 291 292 293 293 293 294 294 296 297 297 296 299 302 303 304 304 304 305 305 307 308 309 307 306 306 306 304 304
267 271 270 265 266 269 271 272 273 274 274 272 271 273 275 275 274 273 272 271 264 267 267 264 259 265 274 278 279 278 278 277 277 278 278 277 278 279 281 282 282 283 283 283 282 282 281 281 282 283 284 284 285 287 287 287 288 289 290 291 292 293 293 294 294 295 296 295 295 295 298 302 303 303 303 304 304 303 304 305 305 303 304 304 303 302
272 272 265 260 261 260 260 261 264 267 270 273 274 274 275 274 273 270 264 265 263 267 269 264 263 270 275 277 276 276 276 276 277 277 278 279 278 279 280 281 281 282 282 282 282 281 281 282 283 283 283 284 285 286 287 287 287 288 289 290 292 293 293 293 294 295 295 294 294 294 295 298 302 302 303 303 301 301 302 302 302 302 301 303 303 301
267 274 273 270 266 264 267 269 274 276 272 269 271 273 273 274 274 271 270 266 264 266 265 267 268 269 271 273 273 274 275 274 275 276 277 278 279 280 280 280 281 281 282 282 282 281 282 282 282 283 283 284 285 286 287 286 286 287 288 289 291 292 292 293 293 294 294 294 293 293 293 295 298 302 302 301 301 301 301 301 300 301 301 299 301 300
271 267 273 273 272 273 273 273 274 275 271 272 271 271 274 273 272 269 267 265 270 266 262 270 271 268 269 272 273 273 274 275 276 276 277 278 279 279 279 280 283 281 281 281 281 281 282 282 282 282 283 283 284 286 287 286 286 286 287 288 290 291 292 293 293 293 293 293 292 292 293 294 295 299 301 302 301 301 301 301 299 299 300 298 299 298
273 265 270 273 271 273 274 273 274 274 274 273 273 273 272 273 271 268 268 270 270 265 264 269 270 268 270 272 274 274 275 275 276 276 278 278 279 279 279 279 279 279 280 280 281 281 282 281 282 282 282 283 284 285 286 286 286 286 287 288 289 290 291 292 292 292 292 292 292 292 293 293 294 297 299 299 299 299 300 300 299 298 297 297 298 298
271 267 271 273 270 273 273 274 274 273 272 273 273 273 273 272 271 271 271 272 271 269 270 270 270 270 272 273 274 275 277 277 277 278 278 278 278 278 279 279 279 279 279 280 281 281 281 282 282 282 282 283 284 285 285 285 285 286 286 287 288 289 290 291 291 291 291 291 291 292 292 293 293 294 296 297 297 298 299 299 298 296 295 295 296 296
274 266 276 272 269 269 272 274 274 273 272 270 272 273 273 272 272 272 271 271 271 270 271 270 269 269 274 276 275 277 278 278 278 277 277 278 278 278 278 278 279 279 279 280 280 281 281 282 282 282 282 283 284 284 285 285 285 286 286 287 287 288 290 290 290 290 290 290 291 291 292 292 292 293 294 295 296 296 296 296 296 295 294 294 293 293
277 266 273 270 266 267 272 272 272 273 272 271 270 271 271 270 268 270 269 271 269 268 270 269 267 268 273 276 277 277 277 276 276 276 277 278 278 279 278 278 278 279 279 280 280 281 281 281 282 282 283 283 284 284 285 285 285 285 285 286 287 288 289 289 289 289 289 290 290 290 291 291 291 291 292 293 294 294 294 295 294 294 293 293 293 292
273 268 264 263 265 267 272 272 271 270 268 264 265 270 271 271 272 272 273 273 272 272 268 265 267 273 274 276 275 275 276 276 276 277 277 278 279 279 278 278 279 279 280 281 281 281 282 282 283 283 284 284 285 285 285 285 284 284 285 286 287 288 288 288 288 288 288 289 289 290 290 290 290 290 291 292 293 293 293 293 293 293 292 292 293 293
274 272 264 271 266 267 270 270 269 266 260 261 271 274 273 271 271 270 270 271 273 273 271 273 273 275 275 275 275 275 276 276 277 278 279 279 278 278 279 280 280 280 279 277 276 276 277 278 279 281 282 283 284 285 285 285 284 284 285 285 286 287 287 287 287 287 287 288 289 289 290 290 289 290 291 292 292 293 292 292 292 293 293 292 292 292
273 270 266 271 265 264 266 265 263 259 261 272 275 276 275 274 273 272 272 272 273 273 273 273 273 274 275 276 276 277 278 279 279 278 278 279 280 279 280 279 276 274 275 274 273 273 274 276 278 280 279 280 281 283 283 282 282 283 284 285 285 286 285 286 286 286 287 288 288 289 289 289 289 289 290 291 291 292 292 292 292 291 292 292 291 291
270 269 266 265 264 264 265 262 257 259 269 273 274 275 276 275 274 272 271 274 274 274 274 273 274 275 276 277 278 279 278 277 276 275 277 279 281 280 274 271 271 271 270 271 272 273 273 274 275 276 276 278 280 280 280 281 283 284 283 283 282 283 284 285 285 286 287 287 288 288 289 289 289 289 290 291 291 291 291 291 291 291 291 291 291 292
275 272 268 263 269 261 258 260 263 270 269 271 271 271 271 270 271 270 265 270 274 275 274 274 275 276 277 277 278 277 276 274 271 273 276 277 275 274 271 270 270 270 270 270 270 270 271 272 273 274 276 276 278 278 279 280 279 278 279 280 281 283 284 285 285 286 286 287 288 288 289 289 289 289 289 290 290 290 291 291 291 291 291 290 291 291
277 271 270 266 261 266 261 260 262 260 258 264 272 275 276 275 275 274 270 268 275 275 276 275 275 276 276 276 275 273 272 269 266 269 273 273 272 270 270 269 269 269 270 269 270 270 270 270 271 272 272 273 274 275 276 277 279 279 280 281 283 283 284 284 284 285 286 287 288 289 289 289 289 289 289 289 290 290 290 291 291 291 291 291 290 290
277 277 274 268 263 259 258 260 259 257 261 272 273 275 277 276 275 274 269 266 274 276 277 276 275 276 275 273 271 271 267 263 264 267 271 270 269 269 267 267 268 268 268 268 268 267 268 269 270 271 271 272 272 273 274 275 275 276 276 279 280 282 283 283 283 285 286 288 289 289 289 289 288 289 289 289 290 290 290 290 291 291 290 291 291 291
270 268 264 263 261 259 258 257 259 258 261 268 272 274 275 274 276 272 262 263 275 277 277 277 275 274 272 271 270 268 265 261 263 266 269 269 268 268 267 266 266 266 266 267 267 268 268 270 269 269 270 271 271 273 274 275 275 276 277 278 280 281 281 282 283 285 287 288 288 289 289 289 288 288 288 289 289 290 291 291 291 290 290 290 291 291
263 263 263 263 263 265 268 261 263 264 273 275 275 276 276 276 274 265 261 269 276 277 278 276 274 273 271 269 269 265 267 268 267 268 268 268 267 266 266 266 266 266 266 266 267 270 268 269 269 269 270 271 272 273 274 275 274 274 274 276 277 278 280 281 284 286 286 287 287 288 288 288 288 288 288 289 289 290 290 291 291 290 289 290 290 291
265 265 265 267 261 260 260 260 263 266 273 275 275 275 275 272 263 264 273 279 278 277 276 275 272 271 270 268 267 267 267 268 268 267 266 266 266 265 265 265 265 265 266 267 269 268 268 268 269 269 270 271 272 273 274 274 273 273 274 274 275 279 282 283 284 285 285 285 286 287 288 288 288 288 289 289 289 289 290 290 290 290 290 290 290 289
267 263 260 261 266 267 267 263 263 259 268 276 274 274 277 269 271 277 278 278 278 275 274 272 270 269 269 267 267 267 266 266 265 265 265 265 264 264 264 264 264 264 265 266 266 268 269 268 268 269 270 271 272 273 273 273 272 273 273 274 276 278 279 280 281 282 283 284 286 287 287 288 288 288 288 288 289 289 289 290 289 289 289 289 289 289
274 262 264 268 272 260 261 260 261 269 273 277 276 270 273 276 278 278 276 273 274 274 271 269 268 268 267 266 265 265 265 265 264 264 263 263 263 263 264 264 265 265 266 267 268 268 269 269 269 269 270 271 272 273 273 273 273 273 273 274 277 279 280 281 281 281 282 284 286 287 287 287 288 288 288 288 289 289 289 289 289 289 289 289 289 289
275 270 272 266 271 270 263 267 274 276 277 278 278 276 276 277 278 275 273 272 271 271 270 267 267 267 267 266 265 264 263 264 263 263 262 262 262 263 263 264 264 265 266 266 267 269 270 270 269 269 270 271 272 273 273 274 273 274 274 276 278 280 281 282 282 283 284 285 286 287 287 287 288 288 288 288 289 288 289 289 289 289 289 289 289 289
275 276 275 274 273 276 277 277 278 278 277 277 277 277 276 276 276 273 272 271 271 269 268 266 266 266 266 266 264 263 263 263 262 262 262 262 262 263 263 264 264 265 266 266 267 268 268 270 270 270 270 271 273 273 274 275 275 275 277 279 280 281 282 283 283 284 285 286 286 287 287 287 287 287 288 288 289 289 290 289 289 289 289 289 289 289
276 276 275 273 275 272 268 276 275 275 276 277 277 278 276 273 272 272 271 270 268 267 266 266 266 265 265 265 263 263 262 262 261 262 262 262 262 262 263 263 264 264 264 265 266 267 267 268 269 270 271 271 274 275 275 276 276 277 278 281 283 284 284 283 284 284 285 286 286 287 287 287 287 288 287 288 288 289 290 290 289 289 289 289 289 289
271 278 273 274 273 271 271 275 276 277 277 277 276 275 273 271 271 272 271 268 267 266 266 266 266 264 265 263 263 262 261 262 261 261 261 261 261 262 262 263 263 263 264 265 266 267 266 266 266 267 268 269 271 273 275 276 278 281 283 285 285 286 285 285 285 285 285 286 286 287 287 287 287 287 288 288 288 288 289 289 290 289 289 289 289 289
276 277 270 273 272 274 276 277 276 274 276 277 276 273 270 271 270 269 268 266 265 264 265 265 265 264 264 263 263 262 261 261 262 261 261 261 261 261 262 262 262 263 263 263 264 265 265 265 265 266 267 267 269 270 271 272 275 277 279 281 283 283 284 284 285 286 286 286 287 287 287 287 287 288 288 288 288 289 289 289 289 289 290 290 291 290
275 272 275 274 271 270 271 272 273 270 269 275 277 272 269 270 269 267 267 265 264 264 264 263 263 264 264 263 263 262 260 261 261 261 260 260 260 261 261 262 262 262 262 263 263 264 264 264 264 264 265 266 267 268 269 270 272 274 276 277 278 279 278 280 282 284 285 286 286 287 287 287 288 288 288 288 288 288 288 289 290 290 290 289 289 290
274 275 274 272 271 270 275 275 273 273 273 274 274 270 270 270 267 265 264 263 264 264 264 263 261 261 262 262 263 262 261 261 261 261 260 260 260 261 261 261 261 261 261 262 261 261 262 262 263 264 264 265 266 266 267 268 270 271 273 274 275 276 276 277 279 281 283 285 286 286 287 287 287 288 288 288 288 288 288 288 289 290 291 290 289 289
Wind_Speed
0 8 4 4 6 7 7 1 3 4 2 3 2 3 8 7 13 11 6 7 1 7 6 5 15 21 25 23 21 21 22 21 20 22 18 11 9 9 11 13 13 12 9 7 5 6 6 7 8 8 8 7 8 9 7 7 8 9 11 9 12 12 12 12 10 10 11 12 11 12 13 12 12 11 12 12 11 11 11 11 11 11 10 11 11 11
4 7 5 4 5 6 7 1 2 1 0 2 6 6 9 4 11 13 10 11 3 0 8 7 15 24 28 25 22 20 20 22 18 18 18 14 11 10 12 12 11 6 6 10 12 11 9 9 7 7 7 6 8 9 5 9 9 6 8 11 13 10 11 13 14 11 12 15 16 15 16 15 12 11 13 13 11 12 11 12 12 11 10 11 12 11
7 6 7 4 4 3 3 2 2 2 1 1 4 6 7 10 6 14 8 5 3 3 11 8 14 24 31 28 22 18 18 17 13 12 9 8 10 10 10 8 9 10 10 9 10 10 12 12 11 7 7 7 5 8 8 9 8 8 7 10 11 11 14 14 14 14 12 11 13 15 13 15 12 11 11 12 12 12 12 12 12 12 11 11 11 12
7 5 7 2 1 2 3 2 3 2 1 1 5 7 9 6 6 10 12 13 11 2 5 5 11 19 27 23 21 15 14 9 8 10 6 11 10 9 8 7 11 13 12 13 12 12 11 13 13 13 12 10 7 7 7 8 8 9 8 9 11 13 14 15 15 13 16 13 11 13 12 12 12 10 11 11 11 11 13 13 12 11 12 12 12 13
8 12 2 1 2 1 4 5 4 3 6 3 5 6 7 9 9 5 11 10 16 20 3 4 7 8 20 20 16 15 13 9 11 11 10 9 6 3 5 10 10 11 13 13 15 16 15 15 14 14 11 8 9 9 10 9 8 7 10 11 12 13 14 15 14 16 14 14 12 10 9 10 10 7 9 10 11 12 13 12 12 13 13 14 13 14
9 5 1 1 1 0 1 7 4 1 7 4 5 8 9 8 9 12 11 11 11 18 2 7 12 11 21 25 22 15 14 16 11 11 7 7 7 8 10 8 9 10 10 13 16 16 15 16 16 16 17 17 14 13 10 10 10 7 10 11 10 10 12 14 16 17 16 14 10 11 12 14 12 12 13 16 16 15 14 16 14 15 15 14 14 13
4 1 2 3 4 5 2 3 4 1 4 2 6 2 4 5 6 9 12 7 10 13 18 7 9 18 13 26 20 15 17 18 10 7 8 6 6 6 6 6 9 10 11 13 15 18 21 20 20 19 17 17 17 15 12 9 11 11 9 11 11 11 12 14 15 16 15 17 16 14 15 16 17 17 15 15 14 15 14 13 15 14 13 14 14 13
1 6 6 3 2 1 3 5 2 2 1 4 2 1 6 5 7 9 7 4 11 9 19 5 6 13 18 21 7 7 13 11 8 7 10 9 8 7 6 7 9 10 11 13 15 17 20 21 19 20 18 16 17 15 13 12 11 14 15 12 12 10 11 13 14 15 15 15 19 19 15 15 16 15 14 15 15 14 14 14 15 12 13 14 14 14
1 6 1 6 2 1 4 3 1 1 1 4 6 7 8 9 8 8 5 8 10 10 18 6 3 6 9 18 3 5 11 9 7 10 12 14 13 12 10 10 11 12 13 15 16 18 19 19 19 17 18 18 19 17 16 14 13 14 15 14 11 11 11 12 16 15 17 16 15 19 18 15 15 17 13 12 12 13 13 15 14 13 13 14 14 14
3 4 4 3 3 6 2 2 2 5 3 4 10 8 5 3 4 6 5 5 10 5 18 13 5 7 17 16 5 3 8 6 9 7 4 6 11 11 11 12 15 14 14 15 16 16 17 17 17 16 17 18 18 16 15 13 14 16 15 15 14 14 11 11 14 16 18 20 15 15 20 22 16 14 13 11 12 12 12 15 16 15 13 12 13 14
5 5 1 1 1 2 1 2 3 3 2 4 1 7 12 13 7 5 2 2 3 5 16 9 7 2 19 12 9 4 6 6 1 7 12 15 16 15 12 13 14 14 15 15 16 16 15 15 13 13 17 17 18 17 18 17 17 16 16 16 16 16 13 10 13 15 17 19 19 18 14 19 19 17 18 16 14 12 13 14 15 14 14 13 13 13
7 6 2 1 1 1 2 4 2 4 1 9 5 5 7 6 4 6 4 1 3 12 12 7 3 10 18 18 4 10 13 7 9 10 13 16 14 10 11 10 13 14 14 15 15 15 17 17 15 12 16 18 20 20 19 18 18 19 17 18 18 17 16 11 12 15 17 16 19 19 20 16 14 17 15 19 19 17 17 16 16 14 14 13 12 13
3 2 1 2 2 9 4 7 5 4 9 8 5 5 6 6 7 7 3 5 5 13 18 9 11 16 15 12 14 7 8 10 11 14 13 16 9 8 9 9 11 11 12 13 13 13 15 17 16 14 15 16 16 18 21 20 18 18 18 20 19 19 18 14 12 14 17 19 18 19 19 18 15 16 18 17 17 17 16 16 15 15 15 14 13 13
7 3 4 3 3 6 6 8 7 7 7 6 3 1 4 7 3 7 11 7 11 10 16 21 8 18 16 7 4 3 3 7 9 17 18 19 13 11 9 7 9 10 11 12 11 11 11 13 13 11 14 15 15 17 19 19 17 17 17 20 20 21 19 17 12 14 17 19 19 16 20 19 15 14 16 17 16 15 15 15 16 17 16 16 18 15
8 5 1 2 1 2 7 6 2 2 11 7 0 3 1 3 2 10 6 15 15 16 22 18 11 4 11 1 4 8 5 14 18 22 23 20 16 15 13 12 11 9 9 9 10 11 12 13 13 12 13 14 14 16 17 17 17 17 17 19 22 22 22 19 16 13 16 17 19 18 14 18 20 18 13 13 16 18 16 16 17 16 15 15 16 17
3 5 4 2 2 5 5 1 1 4 9 1 2 3 6 1 2 8 11 13 9 13 17 6 7 13 13 12 7 15 15 24 27 31 32 25 23 26 24 24 24 23 21 16 15 16 17 16 15 13 13 14 14 15 14 17 17 17 17 18 21 22 21 20 18 13 14 16 16 17 18 15 18 20 18 12 10 14 17 16 18 18 16 15 15 15
5 5 1 6 7 8 4 3 3 2 1 6 7 3 2 3 3 7 7 13 15 7 16 8 15 14 11 13 6 20 25 29 29 26 23 14 17 19 19 17 16 15 15 16 16 15 16 16 16 15 13 14 14 14 16 16 17 17 16 16 19 22 22 20 18 16 13 14 16 18 18 18 15 15 21 20 17 13 14 15 14 16 17 15 14 14
1 14 7 6 2 1 2 5 2 3 2 3 4 7 5 5 8 5 4 4 6 7 11 5 19 22 15 10 7 22 24 24 21 21 13 17 21 22 21 19 17 15 13 12 11 12 13 13 15 15 13 12 14 15 15 16 15 15 14 14 16 19 22 23 20 16 14 14 16 16 18 17 19 17 12 17 19 17 12 13 14 12 14 16 15 13
3 12 4 5 5 1 4 2 3 1 6 3 3 8 6 7 7 7 5 11 8 12 9 7 17 25 12 14 14 21 21 20 20 16 20 26 25 24 21 22 19 15 12 10 11 12 12 13 15 16 15 15 13 13 13 14 14 15 15 14 14 17 19 20 18 16 14 13 13 12 15 17 15 16 16 10 12 16 17 17 15 15 15 14 14 13
2 2 10 6 6 3 4 5 4 5 3 6 4 5 3 3 3 4 4 8 3 16 12 12 6 22 9 12 18 20 17 17 19 23 24 22 23 22 22 19 17 14 11 11 11 11 11 12 13 14 15 15 15 14 14 13 13 15 15 14 14 16 19 21 21 19 17 16 13 13 13 14 14 16 15 16 14 11 14 15 14 15 14 17 16 15
1 1 11 10 6 6 5 2 2 6 8 5 5 1 2 1 3 6 5 3 3 8 6 10 17 16 5 8 15 16 18 21 24 25 19 20 23 23 21 20 16 14 12 12 12 11 11 12 13 14 14 13 12 11 13 14 14 14 14 14 13 14 17 19 21 20 17 15 14 13 13 14 14 15 13 16 14 16 15 13 13 13 13 13 15 17
2 1 8 15 14 7 2 3 2 3 3 1 3 4 6 7 8 9 13 1 3 4 7 7 16 18 7 3 12 15 19 21 23 19 21 21 22 22 22 20 18 14 13 13 14 11 10 10 14 14 15 13 11 11 12 14 13 13 14 14 12 13 14 16 18 18 20 18 14 13 13 13 11 12 15 15 15 13 12 13 14 14 12 15 15 15
3 2 2 12 7 11 10 15 1 7 3 6 7 1 2 2 3 1 11 9 6 10 8 12 16 24 2 5 6 15 19 20 20 20 20 18 19 22 22 21 17 14 13 14 15 13 9 10 12 14 16 16 15 12 11 12 12 12 13 13 12 12 14 14 14 15 15 18 18 14 13 12 11 10 10 15 18 18 15 13 12 13 14 14 14 16
3 1 3 8 9 4 3 2 9 6 6 7 4 2 2 6 7 9 8 11 12 12 8 8 14 17 6 7 16 16 15 16 19 21 22 20 17 17 20 19 18 17 16 15 15 13 11 10 12 15 17 17 16 13 12 11 11 12 12 12 12 12 13 14 14 14 14 15 18 20 15 13 12 11 11 11 11 17 17 15 13 12 13 13 11 14
3 4 4 8 9 8 2 3 2 3 5 4 3 3 5 10 10 8 8 4 5 8 16 14 17 17 12 9 14 15 18 21 21 22 19 20 17 15 16 19 20 20 18 17 17 15 13 13 16 18 17 17 16 14 12 11 10 11 13 12 12 12 11 12 13 13 13 13 17 18 19 15 13 12 12 12 10 10 14 14 13 13 14 12 13 13
1 2 3 2 9 11 14 14 14 14 12 8 5 14 16 15 16 11 8 6 9 10 17 12 15 19 18 13 18 20 21 20 21 20 20 16 17 18 15 18 21 20 19 19 18 15 14 15 18 21 20 17 16 14 12 12 11 11 12 13 11 11 12 12 12 12 13 13 14 17 19 18 13 13 14 13 11 11 9 12 13 13 12 14 15 15
2 1 4 6 7 9 10 10 10 8 9 8 11 11 20 16 13 6 7 7 12 15 14 14 17 23 22 22 21 25 20 23 23 18 19 20 20 19 20 19 17 18 19 19 18 14 15 19 24 23 21 18 16 13 12 12 13 13 13 14 13 10 10 11 12 13 13 13 14 15 16 17 16 13 12 12 12 11 10 10 11 13 14 11 12 15
1 0 7 9 13 12 8 11 15 9 11 8 8 16 19 18 13 10 9 14 14 14 19 11 18 20 22 23 25 23 22 18 16 16 18 20 22 22 22 21 22 21 17 17 16 18 22 23 24 23 22 19 16 14 12 12 14 15 14 14 13 11 10 10 11 13 13 13 14 14 15 15 15 15 15 12 12 13 12 12 11 12 12 13 13 12
4 3 8 9 12 8 7 12 13 11 6 7 11 17 19 17 14 13 14 16 13 8 19 25 21 21 20 21 23 23 22 23 20 19 20 20 22 23 23 25 25 21 21 20 19 21 23 23 22 22 21 19 16 15 15 14 15 14 14 14 14 13 12 11 10 12 13 14 14 15 15 14 15 14 14 12 12 13 13 13 13 13 12 12 15 15
5 4 5 6 9 7 7 10 9 11 10 8 13 18 16 17 17 16 16 15 13 16 24 22 19 23 21 19 21 23 24 23 20 18 19 19 22 23 23 25 24 25 23 22 24 23 23 22 21 21 21 19 17 17 16 16 16 14 14 15 15 15 14 10 10 11 13 14 14 15 14 15 14 15 13 13 13 13 14 14 12 12 13 14 13 13
6 7 3 2 4 10 7 8 9 8 6 8 16 19 17 17 14 12 13 14 14 16 23 21 18 21 15 18 18 20 24 25 22 22 22 23 22 23 26 26 27 28 26 28 23 23 24 24 22 21 20 20 18 16 17 16 15 14 13 14 15 17 15 10 10 11 12 14 14 14 15 14 14 14 15 13 12 12 13 14 13 12 13 13 12 12
1 4 2 1 3 10 7 8 12 11 8 12 18 17 13 10 9 11 12 11 11 20 25 20 16 15 14 17 20 23 27 33 27 20 21 20 19 25 27 27 30 29 30 25 25 23 23 22 20 19 19 18 17 18 17 15 14 12 13 14 18 19 18 11 10 12 14 14 14 15 15 13 14 14 14 13 12 12 12 13 13 13 13 13 13 12
2 2 1 1 2 10 13 8 12 13 11 6 5 1 3 9 12 17 16 13 13 18 18 13 15 13 21 21 25 23 26 35 28 19 19 24 29 29 28 31 30 28 30 26 24 22 21 21 19 18 18 18 17 18 15 14 13 13 13 17 18 20 16 12 12 14 15 15 14 15 14 13 13 14 14 13 12 11 11 12 13 15 14 14 14 13
4 4 1 1 2 8 15 10 6 9 9 7 5 1 8 15 17 17 17 16 15 15 14 15 20 23 23 23 23 24 24 29 30 23 18 22 25 28 31 29 27 25 27 27 30 29 28 28 28 25 28 21 23 20 16 13 16 19 23 24 25 15 11 12 15 15 17 16 14 14 14 13 12 13 13 12 12 12 11 12 14 14 13 13 12 14
2 2 2 3 2 6 7 5 7 5 10 3 10 14 13 15 16 18 19 17 13 16 16 19 21 22 26 20 20 21 23 31 39 33 23 26 28 26 22 23 26 31 26 26 32 31 32 30 27 26 28 27 21 21 19 22 25 28 28 17 12 10 15 16 16 19 17 15 14 13 13 12 11 12 12 12 12 12 13 14 13 13 12 12 14 14
4 4 2 1 3 4 4 1 3 9 4 11 17 17 14 8 11 12 15 14 16 15 17 19 21 23 22 24 23 20 24 31 33 44 20 19 19 19 23 26 29 30 31 29 26 30 30 30 29 26 27 23 22 23 23 25 19 13 14 15 20 21 18 19 17 18 13 13 14 13 13 11 11 12 11 11 11 13 14 14 14 14 12 12 11 12
9 2 2 1 4 4 4 4 11 11 15 11 8 4 3 8 10 10 15 17 17 17 18 17 20 23 24 24 24 25 25 24 25 34 19 18 22 22 22 26 26 27 27 28 29 32 30 25 27 28 23 23 22 22 20 18 22 25 27 23 22 17 18 16 15 13 14 15 14 13 12 11 10 11 11 10 11 13 14 15 14 13 11 12 12 13
7 9 5 2 4 3 3 7 6 4 6 7 6 10 6 6 8 6 6 18 14 13 11 18 24 22 24 25 23 27 24 20 25 25 31 27 23 21 27 28 27 25 25 27 29 30 28 24 21 23 23 24 23 21 19 21 18 20 20 19 13 15 17 15 13 14 15 15 12 12 12 11 9 11 11 10 12 14 13 13 12 13 12 14 14 14
4 4 4 5 4 3 2 4 5 4 7 7 11 8 12 9 8 7 6 15 8 11 20 21 22 21 19 22 25 24 21 17 21 24 27 34 38 36 33 33 31 29 26 26 29 33 34 28 27 26 24 23 21 19 21 21 21 19 21 20 23 21 19 13 14 14 15 13 12 12 11 11 9 9 10 11 12 12 13 13 13 12 12 13 13 15
1 2 3 3 5 4 3 2 8 3 5 7 11 13 10 4 7 6 13 12 13 20 20 19 23 22 18 23 19 19 15 12 22 27 34 40 39 35 31 31 35 37 37 32 27 26 30 29 29 28 25 24 24 19 19 16 17 17 19 18 17 16 16 16 15 15 13 11 12 12 11 10 10 9 10 11 11 11 12 11 10 11 13 12 12 13
2 4 4 10 8 9 10 6 4 6 5 6 11 11 8 2 5 9 13 17 16 19 17 19 20 18 19 21 18 19 21 19 25 33 35 33 38 39 34 32 29 29 30 33 33 33 26 25 23 24 26 24 23 21 17 17 14 19 16 17 16 20 19 18 17 15 11 12 13 12 12 10 9 10 10 11 11 10 10 9 11 12 13 12 11 11
4 3 4 3 4 6 4 5 9 8 13 11 7 4 3 2 7 12 12 14 18 17 19 18 17 18 19 24 21 20 23 26 24 26 32 31 31 34 36 35 34 33 29 26 30 30 28 25 24 25 25 23 22 21 17 14 16 15 19 19 20 17 15 15 12 10 11 13 14 13 12 11 10 9 10 10 11 10 11 10 11 12 13 12 12 14
7 3 5 3 3 2 3 3 4 8 2 5 2 6 5 7 9 11 14 13 13 17 15 16 15 17 18 24 27 29 31 31 31 31 28 28 29 31 33 34 34 34 35 36 33 34 32 26 25 26 25 23 21 18 16 16 18 18 17 20 20 18 18 16 15 14 14 15 15 14 13 11 10 10 8 9 11 12 12 10 10 12 12 14 13 14
3 2 3 3 3 4 3 4 6 9 5 6 8 9 6 7 9 9 8 10 11 13 12 13 16 17 20 21 26 28 32 34 34 34 36 34 31 30 31 30 31 33 31 32 32 27 28 28 26 23 24 22 20 18 17 16 17 18 19 21 20 17 15 14 14 14 14 14 14 14 12 11 10 9 8 10 10 12 12 12 12 11 11 12 13 12
6 8 6 5 5 4 6 8 8 11 10 10 7 5 6 7 6 6 8 7 10 9 8 10 17 21 20 22 28 27 26 28 31 32 30 30 31 31 31 32 30 31 31 31 32 33 29 21 25 25 26 24 22 18 16 15 15 19 21 21 16 14 13 12 12 12 13 13 13 12 11 10 9 9 9 9 10 11 12 13 12 12 12 13 13 13
2 4 5 3 11 7 11 14 14 14 11 9 7 4 5 4 5 9 9 9 7 9 10 11 18 20 23 23 24 26 26 29 31 29 31 31 30 30 30 30 29 28 30 30 30 32 31 27 20 21 23 24 21 17 15 14 13 17 20 18 15 13 12 12 12 12 13 13 12 12 11 10 10 9 10 11 10 12 12 12 12 12 12 12 13 13
3 3 3 9 7 6 8 2 5 7 6 10 13 9 1 4 5 6 5 6 9 11 14 14 14 16 18 21 22 25 28 28 30 30 28 26 28 30 29 28 29 29 28 31 32 30 29 28 25 22 22 24 24 20 18 17 14 14 16 17 15 12 11 11 12 13 13 13 13 12 10 10 9 8 9 10 10 11 11 11 12 12 12 13 13 13
5 2 5 12 10 8 13 13 12 11 11 9 8 6 4 9 12 9 4 5 8 9 9 14 18 18 18 19 19 22 26 25 26 27 28 27 25 25 26 27 29 30 30 29 28 27 26 26 28 27 27 25 24 22 20 19 18 16 15 13 12 11 11 11 11 12 12 13 12 10 9 9 12 12 9 10 11 11 11 12 13 14 14 14 14 14
4 2 5 2 4 10 12 15 11 5 10 9 3 8 5 5 5 8 10 10 11 12 12 11 12 18 20 21 23 22 23 21 20 24 26 26 26 25 26 27 28 28 28 29 29 27 25 27 28 28 27 25 22 22 21 21 19 18 19 16 15 15 15 13 13 13 13 12 11 11 10 10 9 10 10 10 11 12 12 13 13 13 11 10 10 12
2 10 6 3 9 11 11 6 2 8 11 12 14 7 6 6 5 8 9 10 10 13 15 17 14 13 17 19 20 21 22 22 22 22 24 23 24 27 28 28 27 27 26 26 24 25 26 28 27 27 27 24 22 22 22 21 20 19 16 16 15 14 14 15 13 13 13 12 11 11 10 9 9 10 10 10 10 11 11 13 15 13 12 11 13 17
10 11 4 7 7 10 12 5 3 3 7 11 5 5 7 5 6 9 9 11 12 11 12 16 19 15 14 17 17 18 21 21 24 23 23 22 24 24 24 26 27 26 26 28 28 30 30 28 28 27 26 24 22 22 22 20 20 20 18 18 16 15 15 13 12 12 12 11 10 10 9 8 9 9 9 10 10 10 10 9 11 17 18 15 15 16
Wind_Direction
327 37 337 286 284 279 284 222 232 240 216 281 306 275 278 287 291 289 283 271 58 323 300 319 305 301 298 300 305 305 307 305 306 307 314 336 341 336 340 5 16 20 7 349 3 9 2 354 341 325 317 308 302 288 290 277 251 234 232 232 229 219 213 203 204 199 185 180 187 184 184 188 188 186 180 181 182 180 182 181 182 181 180 172 166 169
65 25 296 236 237 249 268 108 107 72 37 239 300 298 302 289 277 286 301 306 328 93 297 336 317 303 296 299 298 301 301 298 307 310 317 347 354 11 25 23 18 7 360 6 5 357 354 356 350 341 330 321 318 304 309 272 269 260 243 233 234 227 221 213 206 208 202 197 189 190 191 187 185 183 183 185 184 183 181 179 181 180 180 176 171 171
358 305 247 253 250 250 284 110 159 172 246 306 254 294 329 284 250 287 288 290 300 17 290 348 319 298 293 295 295 295 290 293 303 302 329 22 25 33 26 20 12 9 5 2 359 355 352 349 352 354 341 325 290 289 291 283 280 266 251 244 242 232 228 223 212 204 212 204 200 189 190 186 187 190 186 181 184 180 179 180 181 180 178 177 176 173
346 283 254 251 208 348 326 40 84 84 76 196 297 314 283 288 347 304 306 323 316 241 281 308 284 285 288 290 292 282 278 293 302 310 9 63 57 38 29 13 8 2 0 359 355 351 348 349 349 352 352 341 320 306 297 289 277 271 255 247 237 236 233 227 220 215 209 210 210 205 185 191 186 184 181 179 173 183 180 183 182 183 178 177 179 177
252 265 344 41 28 186 273 305 340 354 312 230 211 253 281 297 283 262 298 330 311 303 272 199 252 280 277 289 291 297 303 314 309 322 340 63 53 58 24 19 3 355 350 353 354 353 353 353 351 344 337 333 337 322 314 305 286 273 266 254 244 240 238 234 224 218 213 206 211 207 186 181 180 166 175 173 180 185 184 180 186 187 182 181 180 179
285 269 139 61 16 64 346 319 294 62 309 309 239 213 247 278 301 300 307 353 326 305 333 75 319 269 290 288 289 307 304 301 307 316 9 54 29 22 19 2 351 353 355 354 352 352 352 351 349 350 346 346 340 334 320 310 298 280 277 269 257 248 244 241 232 219 212 210 206 194 185 180 185 186 180 182 178 183 187 189 185 184 185 182 180 180
237 313 47 295 289 299 338 252 258 139 256 19 288 184 234 258 287 295 301 356 307 303 305 59 292 295 283 285 296 305 299 293 314 343 47 35 17 20 5 354 354 351 354 356 358 360 358 353 350 347 347 341 337 331 325 316 311 304 279 274 262 249 245 244 239 226 212 210 207 211 202 188 186 190 193 187 185 187 186 180 182 184 181 183 179 180
11 310 353 10 323 336 360 319 280 140 45 285 228 27 326 319 290 281 288 255 266 277 286 307 212 272 291 273 308 266 277 302 318 34 16 18 13 7 1 355 4 10 6 5 6 3 357 350 347 344 341 341 333 324 323 321 318 316 312 292 275 255 247 242 241 233 223 211 205 207 215 199 193 195 193 184 189 187 181 182 178 179 182 183 180 177
77 304 24 320 303 322 280 244 301 114 136 233 301 348 312 297 289 285 279 280 271 308 291 311 259 274 247 285 351 333 311 313 331 33 14 5 357 352 358 10 19 19 17 12 5 1 354 347 343 342 343 340 337 334 329 325 322 318 314 308 288 269 251 243 242 237 232 219 213 207 205 212 204 195 192 189 184 186 182 181 179 179 183 183 183 179
294 188 245 248 289 283 243 304 158 122 34 300 324 321 276 244 238 254 283 300 294 328 278 294 272 270 277 288 4 342 293 1 21 8 360 354 347 351 0 11 16 16 13 10 358 355 349 346 340 341 340 344 343 339 334 329 327 321 317 314 304 284 261 246 242 240 233 230 215 215 205 204 207 195 192 189 187 185 180 186 182 179 181 182 183 183
255 299 224 117 223 214 179 269 148 118 14 309 9 338 333 326 315 315 274 195 11 244 276 274 275 229 292 289 321 11 315 4 71 9 359 355 355 356 12 14 16 12 5 360 353 348 345 342 334 340 343 343 343 342 341 338 332 327 322 319 314 293 278 255 244 241 238 230 223 219 220 205 192 193 189 187 192 185 182 187 184 181 180 181 184 181
327 327 49 301 112 330 99 23 74 91 61 31 10 330 330 307 339 314 313 28 224 274 272 308 47 336 302 302 47 329 338 62 31 3 356 352 348 1 6 13 11 6 2 353 349 346 340 342 341 345 346 345 342 341 342 339 336 334 331 325 318 305 287 265 245 243 242 240 224 219 216 217 205 188 194 189 188 187 184 182 184 183 180 182 184 182
324 272 266 108 239 52 5 20 348 45 42 26 307 346 14 305 327 317 9 335 252 282 289 286 345 314 249 280 318 333 60 20 10 353 346 346 359 11 360 21 9 1 353 348 343 343 343 343 338 341 343 341 342 339 336 337 336 335 333 330 324 310 296 278 251 242 243 240 240 217 213 212 207 204 197 195 188 186 184 184 184 183 185 176 181 188
283 271 353 287 17 26 61 37 336 360 351 358 339 6 24 334 353 296 310 275 282 266 277 298 342 264 281 298 89 76 49 6 344 346 348 346 357 359 4 9 4 353 344 338 335 336 340 340 329 332 336 338 337 337 334 333 335 335 332 333 330 317 301 288 267 247 242 241 241 237 211 210 208 206 205 199 192 188 188 186 185 186 185 183 184 180
338 357 318 13 2 71 57 109 128 256 325 333 16 108 69 102 21 312 302 299 293 293 300 304 327 241 323 133 96 20 333 350 351 346 342 345 346 346 339 340 340 338 339 337 335 336 340 338 330 330 335 335 334 332 331 329 333 334 335 335 333 326 311 297 279 256 247 244 240 238 230 210 204 211 205 208 198 186 190 189 186 188 187 187 184 179
213 236 252 336 106 61 68 17 176 341 316 280 182 77 57 148 143 247 272 276 279 291 293 298 226 287 287 339 355 358 356 349 348 346 342 345 352 348 344 342 341 341 340 342 342 344 343 340 336 332 332 330 330 328 327 328 330 333 333 333 333 330 318 301 287 266 249 246 245 241 232 220 211 203 206 205 204 196 187 191 187 186 187 188 183 182
353 269 39 333 55 89 109 338 320 230 350 302 17 342 192 207 185 273 277 252 276 305 270 304 289 279 294 315 313 3 357 348 344 331 324 334 336 333 330 331 330 327 327 335 339 336 331 333 331 326 324 325 325 326 325 325 326 326 330 334 335 334 329 313 291 278 260 254 249 240 236 224 216 212 201 199 200 201 190 187 193 186 184 182 184 183
122 284 259 226 278 206 255 337 22 22 86 52 4 302 284 279 163 161 259 270 250 260 282 317 294 296 311 306 45 2 341 334 321 316 326 329 331 330 327 326 324 318 318 319 318 318 319 322 321 318 315 315 317 318 318 320 322 322 327 332 335 336 334 326 308 286 272 261 255 248 241 232 218 212 210 199 199 195 192 191 189 189 181 182 184 182
59 306 334 146 113 197 317 49 40 113 66 53 288 303 15 339 352 326 320 312 342 293 285 286 308 288 303 304 356 340 330 317 318 328 330 328 329 321 320 318 314 310 311 310 310 311 315 318 319 318 312 310 309 308 310 312 317 321 329 333 335 335 332 329 319 300 285 269 260 255 244 238 231 217 207 212 193 185 190 192 190 188 187 179 173 178
334 260 304 128 85 313 360 76 331 285 10 104 77 358 337 75 333 349 277 292 307 283 300 300 283 279 341 339 340 320 312 316 326 325 320 320 315 317 314 311 307 302 300 299 297 301 302 309 311 311 311 309 309 311 310 312 317 324 329 332 333 332 335 335 333 322 298 277 263 257 252 246 233 220 210 202 204 199 189 186 187 185 182 182 177 178
302 127 277 282 1 20 357 30 300 336 342 343 30 54 56 18 258 272 240 217 176 271 278 313 294 280 317 0 314 312 317 321 319 316 314 314 314 313 310 306 300 293 291 292 293 293 299 306 309 311 310 305 301 301 307 314 320 322 326 329 330 332 332 333 332 330 315 288 270 257 252 251 240 228 213 201 195 198 197 187 181 186 183 178 180 174
41 354 260 306 325 338 302 182 241 344 159 181 82 19 2 343 341 350 304 312 341 330 294 306 277 271 320 325 307 316 313 310 310 309 310 310 311 310 308 303 295 292 288 288 289 288 294 302 308 312 313 308 298 296 302 308 313 319 321 322 323 326 330 331 331 330 326 312 282 266 256 251 252 238 210 206 199 194 194 186 184 183 180 181 185 177
144 194 251 283 279 293 300 286 31 165 150 153 118 272 238 201 281 192 288 304 306 273 291 271 284 285 28 257 300 304 305 304 306 306 306 309 307 309 308 304 297 288 286 286 286 287 287 297 305 311 312 309 300 290 291 298 304 309 311 314 317 321 322 324 322 324 324 324 313 284 266 258 248 240 239 207 196 196 185 185 185 179 181 188 181 182
63 120 12 279 289 261 272 355 145 143 73 37 8 352 2 320 290 271 262 291 297 303 298 272 251 281 314 322 307 303 299 304 306 308 308 308 307 305 309 308 302 299 295 292 287 285 286 297 306 313 316 311 305 293 286 288 295 301 306 309 311 315 317 320 322 321 322 325 323 315 288 262 244 235 224 224 213 193 191 182 179 179 187 181 178 180
63 298 81 325 313 316 272 134 134 232 104 148 298 265 280 283 283 275 277 265 275 287 287 290 291 301 297 313 296 301 307 305 305 304 305 307 307 306 309 308 304 301 299 297 291 286 291 299 309 314 310 305 298 290 285 287 292 298 304 307 308 307 309 313 314 316 318 321 323 322 316 277 245 228 224 220 219 209 184 181 179 178 183 181 179 182
136 221 89 304 304 322 325 324 321 328 337 341 341 327 312 307 310 333 315 321 289 282 288 285 287 278 287 302 302 304 306 303 304 307 306 301 302 306 302 302 301 301 301 298 293 285 287 296 306 308 305 299 294 285 282 286 290 297 300 301 300 299 306 309 309 309 312 318 320 321 321 310 266 232 222 217 210 208 199 176 175 179 181 181 185 178
160 309 153 194 213 228 247 264 277 305 322 313 317 309 297 296 299 300 292 296 285 290 283 277 273 294 304 311 309 307 309 307 307 311 310 307 307 305 302 298 293 293 296 296 291 281 282 295 302 302 298 293 287 280 276 282 292 299 301 299 298 292 293 301 307 308 311 314 314 314 314 314 298 261 232 215 205 200 190 187 180 177 178 181 184 182
83 332 226 231 239 246 263 275 279 286 289 299 309 291 286 292 299 303 295 283 282 300 284 282 290 299 304 307 304 303 303 297 297 305 307 303 304 304 300 294 290 288 285 284 280 278 283 290 295 295 292 289 284 277 274 279 289 298 300 299 299 297 292 296 300 305 308 311 310 307 308 307 306 278 244 222 208 197 192 185 179 180 181 175 179 188
164 210 241 219 251 246 239 253 266 280 278 291 280 276 282 289 296 290 281 277 288 266 283 297 304 297 296 296 299 299 301 299 302 302 297 296 295 295 294 294 291 288 287 283 278 279 285 288 290 289 286 283 280 277 277 282 288 293 297 299 301 301 295 291 295 301 306 309 306 303 301 303 303 295 259 228 209 202 194 187 182 179 176 181 187 186
72 264 204 240 265 260 237 246 256 269 276 279 276 275 280 286 283 282 278 279 280 281 279 287 300 292 297 298 300 301 299 296 298 297 294 292 293 291 291 292 290 291 288 285 284 283 282 282 282 282 280 277 276 276 279 282 284 288 293 299 302 302 297 291 288 297 303 303 302 297 295 298 299 297 274 237 211 203 197 190 185 176 177 183 189 190
118 266 136 240 297 286 267 257 263 255 263 269 270 273 281 281 281 275 287 297 299 285 285 298 300 297 297 298 299 300 299 293 296 297 294 293 294 290 290 291 291 290 288 288 284 282 282 283 281 278 275 274 274 276 279 279 279 282 287 295 301 302 296 284 285 293 297 297 297 294 293 294 297 297 280 240 216 199 195 192 185 180 179 179 179 183
142 244 21 73 332 293 298 305 298 299 289 271 269 272 268 279 296 298 296 297 301 292 296 308 306 298 298 301 300 299 298 295 298 301 303 301 296 296 293 291 291 289 288 285 286 286 287 285 283 279 278 278 281 283 283 279 277 281 288 296 299 299 289 276 279 290 292 290 292 290 288 289 294 294 278 245 217 200 194 187 184 184 182 177 176 176
207 162 351 18 345 271 288 308 312 312 309 294 274 167 282 298 290 293 291 293 289 293 303 311 290 292 299 303 303 301 299 300 302 311 315 310 308 303 297 291 288 287 288 292 303 310 316 318 319 319 317 309 303 299 292 288 287 288 296 300 295 287 275 274 286 291 289 288 287 284 282 283 290 291 275 244 217 201 188 184 183 185 183 185 182 171
175 204 186 239 222 286 293 314 327 335 326 270 231 107 320 303 297 297 296 295 293 294 293 296 296 302 301 302 303 304 308 307 305 315 321 309 302 293 291 288 292 310 324 322 316 311 308 305 300 295 292 288 290 287 281 287 293 297 296 289 279 264 273 290 293 289 285 283 279 277 276 279 287 290 273 240 219 197 185 183 187 186 183 180 177 179
191 140 205 134 161 269 294 338 351 295 252 225 315 313 301 291 290 282 282 283 276 283 288 294 296 299 300 300 303 310 315 312 309 310 321 302 295 286 295 320 331 323 314 320 322 313 306 301 296 292 294 294 290 287 292 293 292 285 275 264 271 288 296 292 287 282 275 275 275 272 271 276 286 290 273 237 214 197 188 187 188 184 179 173 177 181
211 192 160 270 167 343 310 335 302 239 278 314 299 291 285 281 273 294 290 297 304 301 300 298 296 298 304 309 315 320 323 319 308 303 317 309 307 329 344 328 322 318 312 308 307 304 306 307 303 299 297 295 289 286 281 274 271 273 291 299 294 292 284 279 272 269 269 274 273 267 267 273 286 289 273 233 211 197 191 188 186 184 180 176 178 180
178 102 167 222 261 202 233 210 236 296 303 289 285 277 300 301 308 323 312 309 305 305 300 298 304 313 315 316 324 326 321 313 298 298 313 342 331 332 320 310 308 306 304 304 305 304 306 309 309 304 302 301 299 300 298 303 300 292 288 282 276 269 270 265 262 267 278 273 265 263 264 268 279 287 273 234 210 200 193 188 188 184 174 175 178 178
184 160 241 113 274 165 231 283 294 313 280 278 252 284 284 278 300 312 318 297 302 293 301 318 319 320 323 324 327 324 324 315 310 310 318 337 339 326 319 312 310 306 306 304 304 303 302 300 300 303 305 303 299 296 292 288 280 274 267 267 265 272 270 259 268 280 275 264 256 256 262 260 266 277 271 238 214 202 196 190 184 181 177 179 178 183
239 226 205 185 229 37 345 280 265 262 247 266 293 294 301 313 324 319 309 292 302 327 334 330 323 329 331 328 324 325 326 316 300 298 311 323 324 325 323 317 314 311 308 307 306 304 304 303 301 301 300 297 295 297 298 296 295 292 287 286 280 268 260 261 275 275 264 256 254 256 255 253 253 259 263 244 223 207 195 189 186 183 180 184 181 183
167 209 77 270 247 207 158 197 268 221 263 250 258 273 274 337 314 339 308 304 340 340 334 333 330 332 334 325 323 316 312 297 305 304 312 315 314 313 314 315 315 315 313 310 303 294 295 300 302 301 299 298 298 299 295 294 295 295 293 289 284 277 275 276 276 268 255 256 261 259 249 243 241 243 248 246 228 216 201 190 184 180 182 187 185 183
242 291 161 200 215 235 233 261 292 284 256 255 266 279 299 300 302 320 311 315 339 333 334 335 329 331 329 317 320 311 299 301 299 300 302 307 311 312 315 313 307 305 304 304 304 306 302 299 298 296 297 297 296 297 295 294 289 290 288 285 277 271 269 270 262 253 257 264 264 258 247 237 229 231 235 235 228 217 207 194 187 183 185 185 188 185
300 160 273 135 207 224 218 214 245 259 263 240 252 271 261 30 335 311 309 327 329 330 335 333 328 328 326 311 309 302 294 294 294 303 305 308 310 308 310 310 309 308 305 298 302 305 304 302 299 297 296 293 294 293 290 287 286 283 285 283 277 279 267 249 248 259 268 267 264 257 247 237 228 222 225 226 222 217 211 202 190 184 184 185 185 187
215 144 237 189 231 343 239 231 292 296 271 73 338 331 343 338 297 307 318 323 338 332 336 329 326 321 322 311 306 308 307 309 310 310 308 308 308 309 311 313 313 314 318 317 316 320 317 305 304 303 297 296 295 293 289 287 283 281 279 276 273 271 274 279 277 272 270 267 262 254 245 237 227 223 219 218 216 213 212 200 193 190 185 185 186 188
201 91 277 278 191 186 217 212 216 212 248 327 352 306 309 287 309 328 348 324 336 332 341 331 318 316 311 306 306 310 308 309 311 315 315 316 316 314 314 313 313 313 314 317 315 309 316 311 300 297 299 297 291 286 287 284 283 280 278 272 271 270 268 263 259 257 257 257 255 250 244 235 228 223 218 216 210 210 208 200 195 188 187 187 186 187
225 183 190 216 242 208 213 224 263 286 291 300 303 282 287 311 340 40 2 335 328 338 348 323 314 313 308 310 307 307 308 309 311 314 315 314 316 318 319 319 318 319 319 319 322 324 319 309 303 297 296 295 291 284 283 283 279 279 273 269 268 262 259 254 253 252 251 252 250 246 243 234 228 219 215 216 208 208 206 201 191 191 191 186 189 190
239 186 205 274 256 252 264 262 267 273 286 299 294 299 311 315 34 25 357 338 355 341 331 315 309 310 309 311 311 309 309 311 315 314 316 317 319 318 318 318 321 323 324 325 327 330 328 319 307 300 297 296 297 294 293 288 281 281 278 275 270 262 259 259 259 256 252 252 250 247 239 232 229 220 216 213 208 208 204 198 194 195 188 190 192 191
253 175 173 246 276 323 275 218 250 273 296 296 299 310 296 65 24 21 3 5 339 335 323 308 303 305 302 310 306 305 308 313 313 313 316 320 321 321 321 321 323 326 328 328 328 330 330 327 320 315 311 312 314 308 307 304 296 279 277 280 277 273 266 262 257 256 255 251 250 245 234 225 225 221 217 214 210 207 205 199 193 195 193 193 192 192
285 172 143 241 260 243 260 276 284 295 294 292 291 319 5 1 349 358 31 352 325 316 310 308 314 308 316 310 309 309 309 311 313 317 321 323 323 323 323 325 327 328 329 328 327 329 330 331 330 329 329 325 325 328 325 324 321 316 314 309 308 302 291 276 263 258 255 251 247 244 235 227 222 220 217 212 207 206 205 200 195 195 198 194 192 189
232 70 257 165 242 262 272 275 284 319 296 290 276 101 78 359 320 344 347 339 340 325 319 319 316 311 311 306 310 313 308 311 317 319 322 324 327 328 327 328 329 329 328 329 331 331 331 331 329 328 329 326 326 327 326 326 326 327 327 323 322 319 308 294 279 268 262 257 251 246 240 236 228 218 216 211 208 209 205 198 194 198 199 199 191 193
183 241 234 268 270 270 267 272 67 319 302 307 314 25 31 28 42 345 334 335 335 324 326 324 319 310 306 309 314 316 316 317 322 326 327 328 329 327 328 331 332 331 331 332 332 330 331 331 330 329 328 327 327 326 324 322 321 319 317 320 317 313 306 301 292 281 270 260 253 248 241 236 228 218 214 209 204 204 210 211 199 191 193 194 196 197
217 230 176 214 226 255 263 271 146 213 266 265 286 51 4 23 15 347 346 332 321 316 320 320 317 317 312 313 318 316 313 321 316 327 328 332 329 328 327 333 335 336 337 337 337 336 333 331 331 330 328 328 327 326 322 320 318 317 319 317 310 301 292 293 291 280 270 260 251 244 238 229 223 214 211 208 201 197 198 195 204 197 192 186 185 195